Red Bluff, CA

11:08 AM PST on November 20, 2019 (GMT -0800)
Red Bluff Municipal

Weather History for KRBL - September, 2019

Change the Weather History Date:

Saturday, September 14, 2019

  Actual Average Record
Temperature  
Mean Temperature 78 °F -  
Max Temperature 97 °F 88 °F 109 °F (1953)
Min Temperature 60 °F 58 °F 49 °F (1939)
Cooling Degree Days 14    
Growing Degree Days 28 (Base 50)    
Moisture  
Dew Point 45 °F    
Average Humidity 33    
Maximum Humidity 54    
Minimum Humidity 10    
Precipitation  
Precipitation 0.00 in - - ()
Sea Level Pressure  
Sea Level Pressure 29.87 in    
Wind  
Wind Speed 6 mph (WNW)    
Max Wind Speed 14 mph    
Max Gust Speed 22 mph    
Visibility 10 miles    
Events      
Averages and records for this station are not official NWS values.
T = Trace of Precipitation, MM = Missing Value Source: NWS Daily Summary

Daily Weather History Graph

Daily Weather History Graph

Search for Another Location

Airport or City:

Astronomy

Sep. 14, 2019 Rise Set
Actual Time 6:48 AM PDT 7:19 PM PDT
Civil Twilight 6:21 AM PDT 7:46 PM PDT
Nautical Twilight 5:49 AM PDT 8:18 PM PDT
Astronomical Twilight 5:16 AM PDT 8:51 PM PDT
Moon 8:03 PM PDT (9/14) 7:07 AM PDT (9/14)
Length of Visible Light 13h 25m
Length of Day
12h 30m
Full, 100% of the Moon is Illuminated
Sep 14
Full
Sep 21
Last Quarter
Sep 28
New
Oct 5
First Quarter
Oct 13
Full

Hourly Weather History & Observations

Time (PDT) Temp. Dew Point Humidity Pressure Visibility Wind Dir Wind Speed Gust Speed Precip Events Conditions
12:54 AM 66.0 °F 45.0 °F 47% 29.92 in 10.0 mi NW 4.6 mph - N/A   Clear
1:54 AM 64.9 °F 46.0 °F 50% 29.92 in 10.0 mi NW 6.9 mph - N/A   Clear
2:54 AM 64.9 °F 44.1 °F 47% 29.91 in 10.0 mi WNW 8.1 mph - N/A   Clear
3:54 AM 64.0 °F 43.0 °F 46% 29.92 in 10.0 mi WNW 4.6 mph - N/A   Clear
4:54 AM 63.0 °F 43.0 °F 48% 29.92 in 10.0 mi NW 5.8 mph - N/A   Clear
5:54 AM 63.0 °F 43.0 °F 48% 29.92 in 10.0 mi NW 6.9 mph - N/A   Clear
6:54 AM 60.1 °F 43.0 °F 53% 29.93 in 10.0 mi NNW 4.6 mph - N/A   Clear
7:54 AM 66.0 °F 44.1 °F 45% 29.95 in 10.0 mi NNW 4.6 mph - N/A   Clear
8:54 AM 73.9 °F 44.1 °F 34% 29.95 in 10.0 mi North 5.8 mph - N/A   Clear
9:54 AM 81.0 °F 43.0 °F 26% 29.95 in 10.0 mi NNE 4.6 mph - N/A   Clear
10:54 AM 84.0 °F 42.1 °F 23% 29.94 in 10.0 mi Calm Calm - N/A   Clear
11:54 AM 89.1 °F 42.1 °F 19% 29.93 in 10.0 mi SE 9.2 mph - N/A   Clear
12:54 PM 91.9 °F 44.1 °F 19% 29.90 in 10.0 mi SSE 8.1 mph - N/A   Clear
1:54 PM 95.0 °F 42.1 °F 16% 29.87 in 10.0 mi SE 13.8 mph - N/A   Clear
2:54 PM 95.0 °F 45.0 °F 18% 29.85 in 10.0 mi SSE 11.5 mph 19.6 mph N/A   Clear
3:54 PM 95.0 °F 44.1 °F 17% 29.83 in 10.0 mi SSE 12.7 mph 21.9 mph N/A   Clear
4:54 PM 96.1 °F 45.0 °F 17% 29.81 in 10.0 mi South 12.7 mph - N/A   Clear
5:54 PM 95.0 °F 46.9 °F 19% 29.80 in 10.0 mi SSW 11.5 mph - N/A   Clear
6:54 PM 90.0 °F 48.0 °F 24% 29.79 in 10.0 mi South 8.1 mph - N/A   Clear
7:54 PM 84.0 °F 52.0 °F 33% 29.78 in 10.0 mi SSW 4.6 mph - N/A   Clear
8:54 PM 80.1 °F 51.1 °F 36% 29.79 in 10.0 mi Calm Calm - N/A   Clear
9:54 PM 75.9 °F 51.1 °F 42% 29.79 in 10.0 mi Calm Calm - N/A   Clear
10:54 PM 71.1 °F 51.1 °F 49% 29.78 in 10.0 mi WNW 4.6 mph - N/A   Clear
11:54 PM 66.9 °F 50.0 °F 54% 29.80 in 10.0 mi NW 3.5 mph - N/A   Clear